Wind_Speed
3 4 4 5 4 5 6 7 8 8 9 9 9 9 9 9 9 9 8 8 8 8 7 7 7 7 6 6 6 6 6 6 6 6 6 6 6 7 7 6 7 8 7
2 3 4 4 5 6 7 7 7 8 8 8 9 8 8 8 8 8 8 7 7 7 7 6 6 7 6 6 6 6 5 6 6 6 6 5 6 6 7 7 7 8 7
2 2 3 4 4 6 6 6 6 6 7 8 8 8 8 8 7 7 7 7 7 7 7 6 6 6 6 5 5 5 5 5 5 5 5 5 6 6 7 7 7 8 8
3 3 3 3 3 5 5 5 4 5 6 7 7 7 7 7 8 7 7 7 7 6 6 6 6 5 5 4 4 4 4 5 5 5 5 5 6 7 7 7 7 7 7
3 3 3 2 2 3 3 3 3 4 5 6 6 7 6 6 7 7 7 6 6 6 5 5 5 4 4 4 4 4 5 5 5 5 5 5 6 6 7 7 6 7 7
4 3 3 2 2 2 3 3 3 3 3 5 5 6 6 6 6 6 6 6 6 5 5 5 4 3 3 4 4 5 5 5 5 5 5 5 6 6 7 7 7 7 7
5 3 2 1 0 1 3 3 3 3 3 4 5 5 5 6 6 5 5 5 5 5 4 4 4 3 3 4 4 4 4 5 5 5 5 5 6 6 6 6 7 6 6
6 4 3 2 1 1 1 2 2 3 3 4 5 5 5 5 5 5 5 5 5 5 4 4 4 3 3 4 4 4 4 5 5 5 5 5 5 5 5 5 5 5 4
6 5 4 3 2 1 0 1 2 2 3 4 5 5 5 5 5 5 4 4 5 5 4 4 4 3 3 4 4 4 4 4 4 5 5 5 4 5 4 4 4 3 3
7 6 5 3 2 1 1 2 2 2 3 3 4 5 4 4 5 4 4 3 4 5 4 4 4 3 3 4 4 4 4 4 4 4 4 4 4 3 3 3 3 2 2
8 6 5 4 3 2 1 1 3 3 3 3 4 4 5 4 4 4 4 4 4 4 4 4 3 4 4 3 4 4 4 4 4 4 4 3 3 3 3 3 2 1 2
9 8 6 5 4 3 1 1 2 2 3 3 3 4 4 4 4 4 4 4 3 4 4 3 4 4 3 4 5 4 4 4 4 4 3 3 3 3 3 2 2 1 1
11 10 8 7 6 5 3 2 1 2 2 3 3 3 3 3 4 4 4 3 3 3 3 4 4 4 4 4 4 4 4 3 3 3 3 3 2 2 2 2 1 1 2
12 11 10 9 8 6 4 3 1 1 2 3 3 3 3 3 3 3 4 4 3 3 3 4 4 5 5 5 4 4 3 3 2 3 2 2 2 1 1 0 1 2 2
14 13 12 11 10 8 6 5 2 1 2 2 3 4 4 4 4 4 4 4 4 3 3 4 4 5 5 5 4 3 3 3 2 1 1 1 1 1 1 1 1 2 3
14 14 13 12 11 10 7 6 4 1 2 2 3 3 3 4 4 4 4 4 3 3 2 3 4 6 5 5 4 3 2 2 1 1 1 1 1 2 2 2 2 3 3
15 15 14 13 12 11 9 8 6 3 2 2 2 3 3 4 4 4 4 4 4 3 3 3 4 5 5 5 4 4 3 2 2 2 3 3 3 3 3 3 3 4 4
15 15 15 15 14 12 10 9 6 4 3 2 3 3 4 4 5 5 5 4 4 4 4 4 4 5 5 5 5 4 4 4 4 4 4 5 5 5 5 5 5 5 5
16 16 15 15 14 13 12 10 7 5 4 3 4 4 5 6 6 6 6 6 6 6 6 6 6 6 6 6 6 5 5 5 6 6 6 7 7 6 6 7 7 7 7
16 16 16 15 15 14 13 11 9 7 6 5 4 4 5 5 6 7 7 8 8 7 7 7 8 8 7 7 6 7 6 7 7 7 8 8 8 8 8 9 9 9 8
15 16 16 15 15 15 14 12 10 8 7 6 4 4 4 5 6 6 7 8 8 9 9 8 9 9 8 8 8 8 8 8 9 9 9 9 9 10 10 11 10 9 9
15 16 16 16 16 15 14 13 11 10 8 7 6 5 5 5 5 6 8 9 9 10 10 10 10 10 10 10 10 10 10 10 10 10 11 10 11 11 11 11 11 11 11
15 16 16 16 16 15 14 12 12 12 10 8 8 7 5 5 5 6 7 8 9 10 10 10 11 11 11 11 12 12 12 12 12 12 12 12 12 12 12 12 12 12 12
15 16 16 16 16 16 15 13 13 12 11 10 9 7 6 6 6 6 6 7 8 9 10 10 10 11 12 12 12 12 12 13 13 13 13 13 13 14 14 14 14 14 13
15 15 16 16 16 16 16 14 13 13 12 11 10 9 8 7 6 6 6 7 8 8 9 10 11 11 12 12 13 13 13 14 14 14 14 14 14 15 15 15 15 15 15
15 15 16 16 17 16 16 15 14 13 13 12 11 9 9 9 8 7 8 8 8 9 10 11 11 11 12 13 13 14 14 14 15 15 15 15 15 16 16 16 16 17 17
Wind_Direction
110 131 135 137 139 149 150 148 152 151 153 156 155 153 150 146 143 140 135 133 132 130 127 120 115 113 108 102 98 91 87 95 97 96 97 95 98 102 98 98 93 88 87
110 127 126 119 127 141 145 149 154 158 161 161 158 156 155 153 148 144 140 136 134 132 128 123 119 116 109 102 96 91 86 93 97 92 94 100 105 105 101 100 97 92 90
85 105 114 117 123 137 138 140 151 157 163 164 163 161 158 156 155 151 143 137 134 131 126 121 120 117 114 109 103 100 95 102 103 94 101 105 105 107 105 103 98 96 92
72 81 108 118 135 142 140 142 157 163 166 166 164 162 161 160 158 154 151 145 141 136 131 128 124 122 122 117 109 104 104 105 104 101 107 104 103 102 102 101 97 97 94
53 55 86 98 145 154 158 167 170 175 177 178 172 168 167 168 165 160 158 156 153 146 140 137 133 127 126 124 113 110 107 101 105 102 104 101 103 104 104 100 98 97 92
41 45 61 108 125 159 168 167 172 180 186 188 181 169 169 169 168 166 165 165 161 153 145 142 138 130 128 131 124 120 113 107 110 107 105 105 106 108 106 103 100 98 93
37 39 46 53 58 127 158 169 176 174 177 176 177 171 167 165 163 163 163 167 166 162 153 146 137 126 116 131 136 125 113 116 115 114 120 116 112 112 110 105 102 98 94
36 39 46 43 27 96 171 185 186 197 199 189 181 175 170 168 166 162 163 168 165 165 159 148 140 128 122 135 143 134 122 118 120 116 121 119 117 116 108 107 102 99 98
39 39 42 37 5 28 24 237 216 223 210 194 187 185 179 177 176 166 165 172 168 164 161 156 145 142 137 139 140 134 127 122 119 124 123 120 120 120 112 114 109 107 108
27 27 28 25 2 344 304 258 226 203 197 195 194 195 192 184 183 185 175 165 153 150 153 155 150 151 139 138 143 133 129 130 126 124 126 122 121 122 124 122 119 121 121
22 18 16 17 7 354 332 263 225 213 206 202 198 199 201 200 196 197 194 178 155 153 155 154 151 149 150 141 142 137 138 133 133 130 124 120 116 120 130 139 132 123 139
26 23 16 16 5 349 333 293 248 221 215 215 205 208 210 216 215 208 198 188 173 165 161 164 159 156 152 144 141 133 133 131 137 132 126 118 111 124 137 152 158 177 185
27 25 21 13 6 360 353 333 275 212 213 212 211 218 224 222 224 220 205 196 179 178 176 173 167 163 163 155 148 138 135 132 138 132 128 119 114 121 140 160 185 212 230
28 23 19 16 12 9 4 353 298 233 218 221 221 226 237 238 237 233 229 226 204 200 194 184 172 173 173 160 151 148 146 138 141 136 137 130 120 120 134 193 257 257 259
28 24 21 20 19 15 8 1 335 254 233 241 234 239 246 245 248 246 246 242 228 217 202 188 192 185 179 162 160 165 164 158 150 160 161 170 178 192 229 282 291 289 281
28 26 24 22 20 15 8 4 4 331 258 244 240 243 239 241 244 246 249 244 236 227 204 192 191 189 185 184 182 184 192 196 196 223 238 243 249 257 274 291 298 295 290
29 28 27 24 21 17 14 13 11 351 298 269 246 239 234 235 237 244 249 252 244 229 216 212 210 209 207 201 201 208 219 226 238 258 261 261 266 271 279 292 295 297 294
28 28 27 25 23 19 17 18 16 7 334 294 275 255 245 242 240 245 246 249 247 240 234 232 230 230 225 227 230 236 240 248 251 259 262 266 269 272 278 283 289 292 292
27 27 27 25 24 22 19 18 19 13 356 326 294 272 261 255 250 254 252 252 253 255 248 243 242 241 238 240 242 248 255 262 260 260 265 267 265 273 278 282 285 287 287
25 25 25 23 22 21 19 18 20 16 5 351 319 286 265 266 265 265 259 258 257 258 254 249 247 246 246 246 250 254 259 264 266 268 272 273 267 273 278 281 283 285 283
23 22 20 19 19 17 17 16 17 12 4 355 338 307 284 270 266 264 261 260 261 260 257 253 251 250 253 254 259 262 266 267 268 270 273 274 270 272 276 276 278 280 281
19 18 18 16 15 13 14 13 12 9 5 358 353 333 307 284 272 272 267 266 264 262 259 258 256 253 257 258 261 265 269 270 270 269 269 270 272 273 274 276 275 276 279
13 13 13 13 13 11 11 10 9 6 2 358 350 341 328 312 294 283 278 271 266 263 261 261 263 258 259 259 261 265 269 271 272 273 271 271 274 274 275 277 275 276 275
10 11 11 10 10 8 8 7 5 2 358 355 350 341 339 332 309 293 284 279 274 272 265 267 269 269 266 264 266 267 269 271 271 272 270 271 274 275 276 273 273 274 274
7 8 6 7 7 7 6 5 2 359 357 354 352 344 343 339 326 311 302 293 287 281 275 273 275 274 270 269 269 269 271 272 273 275 273 272 272 273 276 276 275 274 275
3 4 4 5 5 4 4 3 0 358 357 353 350 347 343 343 338 319 308 302 295 287 282 280 278 280 275 275 275 274 273 275 276 276 276 274 274 274 277 279 279 279 277
Height
5890 5889 5889 5890 5890 5891 5892 5892 5892 5893 5893 5894 5894 5895 5895 5896 5896 5896 5897 5897 5898 5898 5899 5899 5900 5900 5900 5901 5901 5902 5902 5902 5903 5903 5903 5903 5904 5904 5905 5905 5905 5906 5906
5890 5890 5890 5891 5891 5892 5892 5893 5893 5894 5894 5895 5895 5896 5896 5896 5897 5897 5898 5898 5899 5899 5900 5900 5900 5901 5901 5902 5902 5902 5903 5903 5904 5904 5904 5904 5905 5905 5906 5906 5907 5907 5907
5891 5891 5891 5892 5892 5893 5893 5894 5894 5895 5895 5895 5896 5896 5897 5897 5898 5898 5899 5899 5900 5900 5901 5901 5901 5902 5902 5903 5903 5903 5904 5904 5905 5905 5905 5905 5906 5906 5907 5907 5908 5908 5909
5892 5892 5892 5893 5893 5894 5894 5895 5895 5896 5896 5896 5896 5897 5897 5898 5898 5899 5899 5900 5901 5901 5901 5902 5902 5903 5903 5903 5904 5904 5904 5905 5905 5905 5906 5906 5907 5907 5908 5908 5909 5909 5910
5894 5893 5893 5893 5894 5894 5895 5896 5896 5896 5896 5897 5897 5897 5898 5898 5899 5899 5900 5901 5901 5902 5902 5903 5903 5903 5904 5904 5904 5905 5905 5905 5906 5906 5907 5908 5908 5909 5909 5909 5910 5910 5910
5895 5894 5894 5894 5895 5895 5895 5896 5896 5896 5897 5897 5898 5898 5898 5899 5899 5900 5901 5901 5902 5902 5903 5903 5904 5904 5904 5904 5905 5905 5906 5906 5907 5907 5908 5909 5909 5910 5910 5911 5911 5911 5912
5895 5895 5895 5895 5895 5896 5896 5896 5897 5897 5897 5898 5898 5898 5899 5899 5900 5900 5901 5902 5902 5903 5903 5904 5904 5904 5904 5905 5905 5906 5906 5907 5907 5908 5909 5910 5910 5911 5911 5912 5912 5912 5913
5896 5896 5895 5896 5896 5896 5897 5897 5897 5897 5898 5898 5898 5899 5899 5900 5900 5901 5901 5902 5902 5903 5904 5904 5904 5905 5905 5905 5906 5906 5907 5907 5908 5909 5910 5911 5911 5912 5912 5913 5913 5914 5914
5897 5897 5896 5896 5896 5897 5897 5897 5897 5898 5898 5898 5899 5899 5900 5900 5901 5901 5901 5902 5902 5903 5904 5904 5904 5905 5905 5906 5906 5907 5907 5908 5909 5910 5910 5911 5912 5912 5913 5913 5914 5914 5915
5898 5898 5897 5897 5897 5897 5897 5897 5897 5898 5898 5899 5899 5900 5900 5901 5901 5901 5902 5902 5902 5903 5904 5904 5905 5905 5906 5906 5907 5907 5908 5909 5910 5910 5911 5911 5912 5912 5913 5914 5914 5915 5915
5899 5898 5898 5898 5897 5897 5897 5897 5898 5898 5898 5899 5899 5900 5900 5901 5901 5902 5902 5903 5903 5903 5904 5904 5905 5905 5906 5907 5907 5908 5909 5910 5910 5911 5911 5912 5912 5913 5913 5914 5915 5915 5916
5900 5899 5899 5898 5898 5898 5897 5898 5898 5898 5898 5899 5899 5900 5901 5901 5902 5902 5902 5903 5903 5903 5904 5905 5905 5906 5907 5907 5908 5909 5910 5910 5911 5911 5912 5912 5912 5913 5913 5914 5915 5915 5916
5902 5901 5900 5899 5899 5898 5898 5898 5898 5898 5898 5899 5899 5900 5901 5901 5902 5902 5903 5903 5903 5904 5904 5905 5905 5906 5907 5908 5909 5909 5910 5911 5912 5912 5912 5912 5913 5913 5914 5914 5915 5915 5916
5903 5902 5901 5900 5899 5898 5898 5898 5898 5898 5898 5899 5899 5900 5901 5901 5902 5902 5903 5903 5904 5904 5905 5905 5906 5907 5907 5908 5909 5910 5910 5911 5911 5912 5912 5913 5913 5913 5914 5914 5915 5915 5915
5905 5903 5902 5901 5900 5899 5898 5898 5897 5898 5899 5899 5899 5900 5901 5901 5902 5902 5903 5903 5904 5904 5905 5905 5906 5907 5908 5908 5909 5910 5911 5911 5912 5912 5912 5913 5913 5913 5914 5914 5914 5914 5914
5907 5905 5904 5902 5901 5899 5898 5898 5897 5898 5898 5899 5899 5900 5900 5901 5902 5902 5903 5903 5904 5904 5905 5905 5906 5907 5908 5908 5909 5910 5910 5911 5912 5912 5912 5913 5913 5913 5913 5914 5914 5913 5913
5909 5907 5905 5904 5902 5900 5899 5898 5898 5898 5898 5899 5899 5900 5900 5901 5902 5902 5903 5903 5904 5905 5905 5906 5906 5907 5907 5908 5909 5909 5910 5911 5911 5911 5912 5912 5912 5912 5913 5913 5913 5913 5912
5911 5909 5907 5905 5903 5902 5900 5899 5899 5898 5898 5898 5899 5899 5900 5900 5901 5902 5902 5903 5903 5904 5905 5905 5906 5906 5907 5908 5908 5909 5909 5910 5910 5910 5911 5911 5911 5911 5912 5912 5912 5912 5912
5913 5911 5909 5907 5905 5903 5901 5900 5899 5899 5899 5898 5899 5899 5899 5900 5900 5901 5901 5902 5903 5904 5904 5905 5905 5906 5906 5907 5907 5908 5908 5908 5909 5909 5909 5909 5910 5910 5910 5910 5910 5910 5910
5915 5913 5911 5909 5907 5905 5903 5901 5900 5900 5899 5898 5898 5898 5899 5899 5899 5900 5901 5901 5902 5903 5903 5904 5904 5905 5905 5906 5906 5907 5907 5907 5907 5907 5907 5907 5908 5908 5908 5909 5908 5908 5908
5917 5915 5913 5910 5909 5907 5905 5903 5902 5901 5899 5899 5898 5898 5898 5898 5898 5899 5899 5900 5901 5901 5902 5902 5903 5903 5904 5904 5905 5905 5905 5905 5906 5905 5905 5906 5906 5906 5906 5907 5906 5906 5906
5918 5916 5914 5912 5910 5908 5906 5904 5903 5901 5900 5899 5898 5897 5897 5897 5897 5897 5898 5898 5899 5899 5900 5900 5901 5901 5902 5902 5903 5903 5903 5904 5903 5903 5903 5903 5904 5904 5904 5904 5904 5904 5903
5920 5918 5916 5914 5911 5909 5907 5905 5903 5902 5900 5899 5898 5897 5896 5896 5896 5896 5896 5897 5897 5897 5898 5898 5898 5899 5899 5900 5900 5901 5901 5901 5901 5901 5901 5901 5901 5901 5901 5901 5901 5901 5900
5921 5919 5917 5915 5912 5910 5908 5906 5904 5902 5901 5899 5898 5897 5896 5896 5895 5895 5895 5895 5895 5895 5895 5895 5896 5896 5896 5897 5897 5897 5898 5898 5898 5898 5898 5898 5898 5898 5897 5898 5898 5898 5897
5921 5920 5918 5915 5913 5911 5909 5907 5905 5903 5901 5899 5898 5897 5896 5895 5895 5894 5894 5894 5893 5893 5893 5893 5893 5893 5894 5894 5894 5894 5894 5894 5894 5895 5895 5895 5894 5894 5894 5894 5894 5894 5893
5922 5920 5918 5916 5914 5912 5909 5907 5905 5903 5901 5899 5898 5896 5896 5895 5894 5893 5893 5892 5892 5891 5891 5891 5891 5890 5890 5891 5890 5890 5890 5891 5891 5891 5891 5891 5890 5890 5890 5890 5890 5890 5889